Flag for Bosnia-Herzegovina Weather past 2 weeks in Sarajevo, Bosnia-Herzegovina

Now
68 °F

Scattered clouds.


Feels Like: 68 °F
Forecast: 46 / 69 °F
Wind: 7 mph from West

Location: Sarajevo / Butmir

Current Time: Apr 25, 2015 at 4:26:59 PM

Latest Report: Apr 25, 2015 at 4:00 PM


Visibility: N/A

Pressure: 29.98 "Hg

Humidity: 35%

Dew point: 39 °F

Location of SarajevoLocation

Historic Weather in Sarajevo — Graph

°F

Sarajevo temperature yesterday

Maximum temperature yesterday: 59 °F (at 10:30 AM)
Minimum temperature yesterday: 45 °F (at 3:00 AM)
Average temperature yesterday: 51 °F

Past Weeks' High & Low Weather Summary

 TemperatureHumidityPressure
High72 °F (Apr 16, 12:30 PM)100% (Apr 13, 3:00 AM)30.42 "Hg (Apr 13, 3:00 AM)
Low30 °F (Apr 20, 5:00 AM)18% (Apr 10, 5:00 PM)29.92 "Hg (Apr 18, 5:30 AM)
Average52 °F59%30.17 "Hg
* Reported Apr 10 3:00 PM — Apr 25 3:00 PM, Sarajevo, Weather by CustomWeather, © 2015

Note: Actual official high and low records may vary slightly from our data, if they occured in-between our weather recording intervals... More about our weather records

Advertising

Sarajevo weather history for previous 24 hours

 ConditionsComfort  
Time TempWeatherWind HumidityBarometerVisibility
3:00 PM
Sat, Apr 25
68 °FScattered clouds.7 mph40%30.01 "HgN/A
2:30 PM64 °FScattered clouds.5 mph43%30.04 "HgN/A
2:00 PM66 °FScattered clouds.3 mph43%30.04 "HgN/A
1:30 PM68 °FScattered clouds.2 mph46%30.07 "HgN/A
1:00 PM64 °FScattered clouds.3 mph43%30.07 "HgN/A
12:30 PM63 °FScattered clouds.2 mph42%30.07 "HgN/A
12:00 PM61 °FScattered clouds.2 mph52%30.09 "HgN/A
11:30 AM61 °FScattered clouds.3 mph52%30.09 "HgN/A
11:00 AM59 °FPassing clouds.2 mph55%30.09 "HgN/A
10:30 AM57 °FPassing clouds.1 mph67%30.09 "HgN/A
10:00 AM55 °FPassing clouds.1 mph72%30.12 "HgN/A
9:30 AM52 °FPassing clouds.1 mph94%30.12 "HgN/A
9:00 AM48 °FPassing clouds.1 mph100%30.12 "Hg5 mi
8:30 AM46 °FFog.1 mph100%30.12 "Hg2 mi
8:00 AM45 °FFog.1 mph100%30.12 "Hg1 mi
7:30 AM43 °FFog.1 mph100%30.12 "Hg1 mi
7:00 AM43 °FFog.1 mph100%30.12 "Hg1 mi
6:30 AM43 °FLight fog.No wind93%30.09 "Hg1 mi
6:00 AM39 °FLight fog.No wind100%30.09 "Hg1 mi
5:30 AM41 °FLight fog.1 mph100%30.09 "Hg1 mi
5:00 AM43 °FFog.1 mph100%30.09 "Hg1 mi
4:00 AM45 °FPassing clouds.1 mph100%30.09 "Hg4 mi
3:00 AM45 °FPassing clouds.1 mph100%30.09 "Hg4 mi
2:00 AM45 °FPassing clouds.1 mph100%30.09 "Hg4 mi
1:00 AM45 °FFog.1 mph100%30.09 "Hg3 mi
12:00 AM46 °FPassing clouds.1 mph100%30.12 "Hg4 mi
11:00 PM
Fri, Apr 24
46 °FPassing clouds.1 mph100%30.09 "Hg5 mi
10:30 PM48 °FPassing clouds.2 mph100%30.09 "Hg5 mi
10:00 PM48 °FPartly cloudy.No wind100%30.09 "Hg5 mi
9:30 PM48 °FPartly cloudy.No wind100%30.09 "Hg5 mi
9:00 PM48 °FPartly cloudy.1 mph100%30.09 "Hg5 mi
8:30 PM48 °FLight rain. Broken clouds.1 mph100%30.09 "Hg4 mi
8:00 PM48 °FRain. Broken clouds.No wind100%30.09 "Hg4 mi
7:30 PM50 °FRain. Broken clouds.1 mph94%30.09 "Hg5 mi
7:00 PM50 °FLight rain. Broken clouds.2 mph94%30.09 "Hg5 mi
6:30 PM50 °FLight rain. Partly sunny.3 mph94%30.09 "Hg5 mi
6:00 PM50 °FRain. Partly sunny.3 mph94%30.09 "Hg5 mi
5:30 PM50 °FRain. Overcast.2 mph94%30.09 "Hg5 mi
5:00 PM50 °FRain. Overcast.3 mph88%30.09 "Hg5 mi
4:30 PM52 °FRain. Overcast.2 mph77%30.07 "Hg5 mi
4:00 PM55 °FLight rain. Partly sunny.5 mph63%30.07 "HgN/A
Weather by CustomWeather, © 2015

See weather overviewHow to use our weather pages